FW5829 Weather Reports


time (UTC)temp
F
wind
direction
speed
knots
gust
knots
rain 1hr
in
rain 24hr
in
rain mn
in
humidity
%
barometer
mb
20260507124513 53 19 1.7 5.2 0.00 0.54 0.17 80 1006.9
20260507123011 52 293 1.7 4.3 0.00 0.54 0.17 84 1006.6
20260507121509 50 19 1.7 3.5 0.00 0.54 0.17 87 1006.7
20260507120008 49 34 0.0 3.5 0.00 0.54 0.17 88 1006.4
20260507114506 49 28 0.9 2.6 0.00 0.54 0.17 91 1006.5
20260507113006 47 360 0.0 1.7 0.00 0.54 0.17 92 1006.6
20260507111504 47 12 0.0 0.9 0.00 0.54 0.17 92 1006.8
20260507110004 46 355 0.0 2.6 0.00 0.54 0.17 93 1006.7
20260507104502 46 210 0.0 0.9 0.00 0.54 0.17 93 1007.1
20260507103058 0 0.0 0.0 0.00 0.54 0.17 1007.2
20260507101554 0 0.0 0.0 0.00 0.54 0.17 1006.5
20260507100057 0 0.0 0.0 0.00 0.54 0.17 1006.5
20260507094547 0 0.0 0.0 0.00 0.54 0.17 1006.3
20260507093040 0 0.0 0.0 0.00 0.54 0.17 1005.9
20260507091540 0 0.0 0.0 0.00 0.54 0.17 1006.3
20260507090031 0 0.0 0.0 0.00 0.54 0.17 1006.2
20260507084527 0 0.0 0.0 0.00 0.54 0.17 1006.3
20260507083023 0 333 0.9 4.3 0.00 0.54 0.17 93 1006.0
20260507081521 48 345 0.0 3.5 0.00 0.54 0.17 94 1006.0
20260507080018 49 181 0.0 2.6 0.00 0.54 0.17 94 1006.0
20260507074517 49 325 0.0 3.5 0.00 0.54 0.17 94 1005.9
20260507073015 49 30 0.0 3.5 0.00 0.54 0.17 94 1005.6
20260507071522 50 321 0.0 2.6 0.00 0.54 0.17 94 1005.2
20260507070012 50 163 0.0 0.9 0.00 0.54 0.17 94 1005.0
20260507064508 50 9 0.0 1.7 0.01 0.54 0.17 94 1004.7
20260507063008 50 116 0.0 3.5 0.01 0.54 0.17 94 1004.9
20260507061506 50 328 0.9 7.0 0.01 0.54 0.17 94 1004.8
20260507060004 51 359 0.9 3.5 0.01 0.53 0.16 94 1004.4
20260507054609 51 303 0.9 4.3 0.02 0.53 0.16 94 1004.7
20260507053001 51 44 0.0 2.6 0.08 0.53 0.16 94 1004.6
20260507051609 51 38 0.0 0.9 0.15 0.53 0.16 94 1004.9
20260507050059 51 359 0.9 2.6 0.15 0.52 0.15 94 1004.4
20260507044559 52 49 0.0 6.1 0.15 0.51 0.14 94 1004.6
20260507043057 53 194 2.6 4.3 0.10 0.46 0.09 95 1004.2
20260507041552 52 210 2.6 7.8 0.02 0.38 0.01 95 1003.9
20260507040048 52 180 2.6 6.1 0.01 0.37 0.00 95 1004.1
20260507034547 52 187 3.5 7.0 0.00 0.36 0.36 95 1004.0
20260507033045 51 188 3.5 7.0 0.00 0.36 0.36 95 1004.2
20260507031544 51 194 5.2 14.8 0.00 0.36 0.36 95 1004.3
20260507030041 51 199 4.3 10.4 0.00 0.36 0.36 95 1004.3
20260507024539 51 188 6.1 15.6 0.00 0.36 0.36 94 1004.5
20260507023042 51 188 5.2 13.0 0.00 0.36 0.36 95 1004.7
20260507021540 50 182 6.1 14.8 0.00 0.36 0.36 94 1004.8
20260507020036 50 215 8.7 15.6 0.01 0.36 0.36 94 1004.9
20260507014533 50 229 8.7 14.8 0.02 0.36 0.36 95 1005.1
20260507013031 50 192 7.8 15.6 0.03 0.36 0.36 94 1005.2
20260507011534 50 176 7.0 17.4 0.03 0.36 0.36 94 1005.5
20260507010038 50 209 5.2 14.8 0.02 0.35 0.35 94 1005.5
20260507004526 50 179 6.1 17.4 0.01 0.34 0.34 94 1005.6
20260507003024 50 186 8.7 17.4 0.00 0.33 0.33 94 1005.8
20260507001523 50 218 10.4 18.2 0.02 0.33 0.33 94 1005.8
20260507000022 50 176 9.6 17.4 0.02 0.33 0.33 94 1005.7
20260506234519 50 173 9.6 16.5 0.04 0.33 0.33 94 1006.0
20260506233016 50 203 9.6 20.9 0.08 0.33 0.33 94 1006.1
20260506231514 50 179 10.4 19.1 0.10 0.31 0.31 94 1006.3
20260506230022 51 193 11.3 20.0 0.12 0.31 0.31 94 1006.2
20260506224511 51 184 10.4 23.5 0.14 0.28 0.28 93 1006.4
20260506223007 51 202 10.4 17.4 0.13 0.24 0.24 93 1006.5
20260506221506 51 172 9.6 17.4 0.13 0.21 0.21 93 1006.8
20260506220006 51 165 9.6 20.0 0.12 0.19 0.19 93 1007.0
20260506214600 51 194 10.4 19.1 0.09 0.15 0.15 93 1006.9
20260506213110 51 180 7.8 16.5 0.06 0.11 0.11 93 1007.3
20260506211559 51 181 8.7 18.2 0.04 0.08 0.08 92 1007.4
20260506210104 52 181 8.7 18.2 0.05 0.07 0.07 92 1007.3
20260506204604 52 227 7.8 14.8 0.05 0.06 0.06 92 1007.3
20260506203151 53 207 7.8 15.6 0.05 0.05 0.05 92 1007.5
20260506201551 53 195 6.1 20.9 0.04 0.04 0.04 92 1007.7
20260506200049 53 198 8.7 17.4 0.02 0.02 0.02 92 1007.7
20260506194548 53 185 7.8 17.4 0.01 0.01 0.01 91 1007.4
20260506193046 53 196 9.6 15.6 0.00 0.00 0.00 91 1007.5
20260506191549 52 212 8.7 18.2 0.00 0.00 0.00 90 1007.4
20260506190044 53 216 8.7 20.0 0.00 0.00 0.00 90 1007.3
20260506184547 52 152 11.3 19.1 0.00 0.00 0.00 90 1007.6
20260506183040 53 203 9.6 19.1 0.00 0.00 0.00 90 1007.8
20260506181539 53 229 9.6 18.2 0.00 0.00 0.00 90 1008.0
20260506180039 52 207 11.3 17.4 0.00 0.00 0.00 90 1008.0
20260506174536 52 176 8.7 14.8 0.00 0.00 0.00 90 1008.2
20260506173031 52 199 9.6 14.8 0.00 0.00 0.00 90 1008.2
20260506171629 52 161 8.7 13.9 0.00 0.00 0.00 90 1008.4
20260506170028 53 188 10.4 16.5 0.00 0.00 0.00 89 1008.7
20260506164528 53 193 9.6 15.6 0.00 0.00 0.00 89 1009.1
20260506163034 53 212 10.4 20.0 0.00 0.00 0.00 89 1009.3
20260506161528 53 174 8.7 13.0 0.00 0.00 0.00 89 1009.5
20260506160030 53 223 9.6 20.9 0.00 0.00 0.00 89 1009.8
20260506154524 54 190 8.7 16.5 0.00 0.00 0.00 89 1010.1
20260506153023 54 210 9.6 14.8 0.00 0.00 0.00 89 1009.9
20260506151525 54 195 11.3 16.5 0.00 0.00 0.00 89 1009.8
20260506150022 53 181 12.2 21.7 0.00 0.00 0.00 90 1009.6
20260506144521 53 182 10.4 17.4 0.00 0.00 0.00 90 1009.5
20260506143021 53 184 8.7 16.5 0.00 0.00 0.00 89 1009.9
20260506141520 53 233 7.8 14.8 0.00 0.00 0.00 90 1010.3
20260506140026 52 167 8.7 13.9 0.00 0.00 0.00 90 1010.3
20260506134520 53 181 8.7 14.8 0.00 0.00 0.00 90 1010.3
20260506133026 53 179 6.1 12.2 0.00 0.00 0.00 90 1010.2
20260506131517 53 188 8.7 13.0 0.00 0.00 0.00 91 1009.9
20260506130018 52 193 8.7 13.0 0.00 0.00 0.00 91 1009.9